Find Starlink 4080

NORAD ID: 52835 Int'l Des: 2022-062 Owner: SPXS Country: US Constellation: starlink operational
LEOCIRCULAR

現在のビュー

3D地球を読み込み中...

About Starlink 4080

Starlink 4080 (NORAD 52835) is a starlink constellation satellite (v1.5) launched Jun 17, 2022 by SPXS of US. It operates in LEO, CIRCULAR orbit with a mass of 297.00 kg.

次回通過

Passes for default location (London). Set your location on the main map for personalized predictions.

高度履歴

Loading altitude history...

軌道要素

1 52835U 22062F 26263.54052922 .00000241 00000-0 19519-4 0 9999
2 52835 53.1588 228.6261 0001264 93.1297 266.9849 15.31701208235345
Epoch: Sep 20, 2026 • Age: 11 hours

現在のステータス

高度 481.8 km
遠地点 / 近地点 N/A
速度 7.62 km/s
衛星直下点 -33.31°S, 158.86°W
打ち上げ日 Jun 17, 2022
運用期間 4.2 years
タイプ internet

技術仕様

分類 Payload
質量 297.00 kg
乾燥質量 275.00 kg
長さ 0.20 m
スパン 9.00 m
形状 ? Box + pan
製造者 SPXS
バスタイプ Starlink
フェーズステータス In Orbit
所有者/国 SPXS/US

Most Searched